Val DAnniviers, Switzerland 16 day weather forecast

Slopes altitude range 1340 m - 3000m

Number of lifts: 44 Pistes: 220km

In some cases the lift and piste totals shown are for the ski domain (e.g. Three Valleys) rather than individual resort (e.g. Courchevel)

Overview

The 16 day weather forecast is fully updated 4 times every day.

    • Sat 20 OCT 2018
    • Sat 20
    • -2C 7C
    • Sun 21 OCT 2018
    • Sun 21
    • -2C 7C
    • Mon 22 OCT 2018
    • Mon 22
    • -5C 5C
    • Tue 23 OCT 2018
    • Tue 23
    • -4C 4C
    • Wed 24 OCT 2018
    • Wed 24
    • -2C 4C
    • Thu 25 OCT 2018
    • Thu 25
    • -3C 8C
    • Fri 26 OCT 2018
    • Fri 26
    • -5C 5C
    • Sat 27 OCT 2018
    • Sat 27
    • -9C -4C
    • Sun 28 OCT 2018
    • Sun 28
    • -10C -5C
    • Mon 29 OCT 2018
    • Mon 29
    • -6C -4C
    • Tue 30 OCT 2018
    • Tue 30
    • -3C 3C
    • Wed 31 OCT 2018
    • Wed 31
    • 2C 4C
    • Thu 01 NOV 2018
    • Thu 01
    • -1C 2C
    • Fri 02 NOV 2018
    • Fri 02
    • -3C 2C
    • Sat 03 NOV 2018
    • Sat 03
    • -5C 3C
    • Sun 04 NOV 2018
    • Sun 04
    • -3C 5C

Date:

Time Type 0°C level Temp Chill Snow Cloud Speed Gust Dir Press
12:00 3464m 7°C 7_7 0cm 48% 7mph 7mph 1024mB
15:00 3464m 7°C 7_7 0cm 0% 7mph 8mph 1024mB
18:00 2736m 7°C 7_4 0cm 0% 4mph 6mph 1025mB
21:00 2414m -3°C -3_3 0cm 2% 3mph 3mph 1026mB
0:00 2452m -3°C -3_3 0cm 35% 3mph 4mph 1025mB
3:00 2470m -2°C -2_5 0cm 89% 5mph 6mph 1024mB
6:00 2508m -2°C -2_7 0cm 92% 7mph 8mph 1024mB
9:00 3768m -2°C -2_10 0cm 96% 10mph 11mph 1022mB
12:00 3747m 7°C 7_11 0cm 90% 11mph 12mph 1020mB
15:00 3718m 7°C 7_10 0cm 2% 10mph 12mph 1019mB
18:00 2420m 7°C 7_5 0cm 1% 5mph 6mph 1021mB
21:00 2263m -4°C -4_5 0cm 1% 5mph 6mph 1022mB
0:00 2510m -4°C -4_5 0cm 20% 5mph 6mph 1022mB
3:00 2046m -5°C -5_3 0cm 34% 3mph 4mph 1022mB
6:00 2099m -5°C -5_5 0cm 17% 5mph 6mph 1023mB
9:00 3021m -5°C -5_6 0cm 0% 6mph 7mph 1023mB
12:00 3169m 5°C 5_10 0cm 0% 10mph 10mph 1022mB
15:00 2971m 5°C 5_11 0cm 0% 11mph 11mph 1021mB
18:00 2087m 5°C 5_6 0cm 0% 6mph 7mph 1025mB
21:00 2065m -5°C -5_4 0cm 1% 4mph 6mph 1027mB
0:00 2120m -5°C -5_3 0cm 19% 3mph 4mph 1027mB
3:00 2216m -4°C -4_4 0cm 32% 4mph 6mph 1027mB
6:00 2172m -4°C -4_7 0cm 16% 7mph 8mph 1027mB
9:00 2963m -4°C -4_10 0cm 32% 10mph 12mph 1026mB
12:00 3122m 4°C 4_12 0cm 64% 12mph 13mph 1025mB
15:00 2942m 4°C 4_12 0cm 95% 12mph 13mph 1024mB
18:00 2260m 4°C 4_8 0cm 95% 8mph 9mph 1026mB
21:00 2293m -4°C -4_8 0cm 94% 8mph 9mph 1027mB
0:00 2372m -4°C -4_8 0cm 64% 8mph 9mph 1026mB
3:00 2359m -3°C -3_9 0cm 0% 9mph 10mph 1025mB
6:00 2541m -3°C -3_11 0cm 31% 11mph 13mph 1025mB
9:00 2895m -2°C -2_13 0cm 96% 13mph 15mph 1024mB
12:00 3234m 4°C 4_13 0cm 86% 13mph 14mph 1022mB
15:00 3259m 5°C 5_12 0cm 0% 12mph 14mph 1021mB
18:00 2530m 5°C 5_8 0cm 31% 8mph 9mph 1023mB
21:00 2541m -2°C -2_7 0cm 92% 7mph 8mph 1023mB
0:00 2505m -2°C -2_5 0cm 95% 5mph 6mph 1023mB
3:00 2385m -3°C -3_4 0cm 91% 4mph 5mph 1022mB
6:00 2332m -3°C -3_3 0cm 92% 3mph 4mph 1022mB
9:00 4207m -3°C -3_3 0cm 97% 3mph 4mph 1021mB
12:00 4102m 8°C 8_6 0cm 92% 6mph 6mph 1019mB
15:00 4063m 8°C 8_5 0cm 85% 5mph 7mph 1018mB
18:00 2344m 8°C 8_1 0cm 64% 1mph 2mph 1019mB
21:00 2318m -3°C -3_0 0cm 24% 0mph 1mph 1019mB
0:00 2310m -3°C -3_1 0cm 16% 1mph 1mph 1018mB
3:00 2269m -4°C -4_1 0cm 98% 1mph 1mph 1017mB
6:00 2107m -5°C -5_1 0cm 80% 1mph 1mph 1016mB
9:00 3510m -5°C -5_3 0cm 5% 3mph 3mph 1015mB
12:00 3343m 5°C 5_4 0cm 31% 4mph 4mph 1013mB
15:00 3171m 5°C 5_4 0cm 0% 4mph 5mph 1011mB
18:00 2244m 5°C 5_3 0cm 47% 3mph 3mph 1011mB
21:00 2323m -3°C -3_3 0cm 71% 3mph 4mph 1011mB
0:00 2291m -4°C -4_4 0cm 86% 4mph 5mph 1009mB
3:00 2372m -3°C -3_5 1cm 99% 5mph 5mph 1008mB
6:00 2270m -4°C -4_6 1cm 99% 6mph 7mph 1008mB
9:00 1806m -7°C -7_11 3cm 100% 11mph 12mph 1009mB
12:00 1591m -4°C -4_9 2cm 100% 9mph 10mph 1008mB
15:00 1543m -8°C -8_11 1cm 100% 11mph 12mph 1007mB
18:00 1295m -8°C -8_9 1cm 99% 9mph 10mph 1009mB
21:00 1157m -7°C -7_9 0cm 47% 9mph 9mph 1009mB
0:00 1191m -8°C -8_8 0cm 50% 8mph 8mph 1008mB
3:00 1065m -8°C -8_7 1cm 94% 7mph 8mph 1009mB
6:00 780m -10°C -10_7 0cm 84% 7mph 7mph 1010mB
9:00 1363m -10°C -10_3 1cm 76% 3mph 3mph 1009mB
12:00 1515m -5°C -5_6 1cm 88% 6mph 7mph 1009mB
15:00 1405m -5°C -5_5 2cm 99% 5mph 6mph 1010mB
18:00 1216m -5°C -5_4 4cm 99% 4mph 5mph 1011mB
21:00 1122m -8°C -8_1 14cm 100% 1mph 1mph 1012mB
0:00 1360m -8°C -8_6 10cm 100% 6mph 9mph 1012mB
3:00 1396m -6°C -6_3 4cm 100% 3mph 5mph 1012mB
6:00 1428m -6°C -6_3 6cm 100% 3mph 5mph 1013mB
9:00 1520m -6°C -6_4 12cm 100% 4mph 6mph 1015mB
12:00 1619m -4°C -4_3 12cm 100% 3mph 4mph 1016mB
15:00 1676m -4°C -4_4 5cm 100% 4mph 5mph 1018mB
18:00 1205m -4°C -4_3 3cm 91% 3mph 4mph 1022mB
21:00 1248m -7°C -7_4 1cm 47% 4mph 5mph 1025mB
0:00 1202m -7°C -7_5 1cm 47% 5mph 5mph 1026mB
3:00 1245m -8°C -8_6 0cm 59% 6mph 6mph 1025mB
6:00 1465m -8°C -8_6 0cm 69% 6mph 6mph 1025mB
Afternoon 0.239583mm 0 2510m 3°C 3_4 0cm 97% 4mph 7mph 1023mB
Morning 0.09375mm 0 2878m 0°C 0_3 0cm 88% 3mph 6mph 1020mB
Afternoon 3.65104mm 0.5 3294m 4°C 4_9 0cm 100% 9mph 16mph 1008mB
Morning 2.72917mm 6 1889m -1°C -1_4 48cm 99% 4mph 8mph 1010mB
Afternoon 0.932292mm 0 2231m 2°C 2_7 7cm 99% 7mph 8mph 1015mB
Morning 0.0885417mm 0 1760m -2°C -2_11 1cm 83% 11mph 18mph 1021mB
Afternoon 0.0729167mm 0.0625 1512m 2°C 2_11 1cm 89% 11mph 18mph 1025mB
Morning 0.00520833mm 0 1196m -5°C -5_9 0cm 37% 9mph 12mph 1029mB
Afternoon 0mm 0 1665m 3°C 3_7 0cm 5% 7mph 7mph 1026mB
Morning 0mm 0 1593m -3°C -3_6 0cm 31% 6mph 6mph 1024mB
Afternoon 0mm 0 2605m 5°C 5_5 0cm 75% 5mph 6mph 1019mB
Morning 0mm 0 1819m -2°C -2_5 0cm 7% 5mph 6mph 1018mB

16 day outlook at a glance

Forecast issued: 21/10/2018 03:35:31

Chat

Your comments and questions. In a resort? Let us know what it's like!


Characters left 250

For terms and conditions see Readers Comments on the Cookie and privacy policy page.